Zurück zum Katalog

CZ-6A DEB

AktivPO
NORAD 61807·DEBRIS·🇨🇳 China

Gestartet Aug 6, 2024 von Taiyuan Satellite Launch Center

Loading…

Nächste Überflüge (nächste 24 Stunden)

TLE

AktuellSource: Space-Track

Epoche: Sep 13, 2026, 23:34 UTC

1 61807U 24140ABX 26256.98256752  .00000822  00000-0  35251-3 0  9999
2 61807  88.9757 262.4671 0033148 232.4268 127.3912 14.23676124103030

Verfolge CZ-6A DEB in Echtzeit mit AllMySat

Download on the App Store